Showing default

PUNCH-WFI02, 63181

Orbit data source: Space-Track

PUNCH-WFI02, 63181 is an American payload satellite in SSO that was launched on Wed, 12 Mar 2025 UTC via an FALCON 9 launch vehicle from the Air Force Western Test Range (AFWTR). Payload-class satellites include a variety of spacecraft equipped with specific instruments for various scientific and technological missions. These include communications satellites like Starlink; space stations such as the ISS; scientific satellites like the Hubble; Earth observation satellites from companies like Planet Labs, Umbra, and HawkEye 360; GPS; miniature CubeSats for education and research; and military/defense satellites.

Loading next visibility...
Identifier
63181, 2025-047D
Orbit
SSO
Country
Flag of USUS
Related business
Manufacturer
SWRI
Mission
Operational Civil Astronomy
Bus & Motor
PUNCH, Unknown motor
Mass
64 kg wet, 64 kg dry
Launch date (UTC)
2025-03-12 (8 months ago)
Launch vehicle
FALCON 9
Launch site
Air Force Western Test Range (AFWTR)
Object type
Payload
Rocket body
Debris
Shape & HBR
Box + 1 Pan, 1.9 m
Radar Cross Section
0.625 m², Medium (>0.1 m² and < 1m²)

Expand to show TLE details & history
Last TLE update: 11 hours ago

TLE from 11 hours ago
0 PUNCH-WFI02
1 63181U 25047D   25300.01484766  .00001216  00000-0  19305-3 0  9994
2 63181  97.9539 124.4413 0008842 203.9227 156.1572 14.73893133 33701
Epoch: 2025-10-27T00:21Z
TLE epoch observation values (Epoch: 2025-10-27T00:21:22.837Z)
Latitude
-0.00001°
Longitude
83.47338°
Altitude
657.364 km
Speed
7.526 km/s
True Right ascension
08h 17m 45s
True Declination
0° 00' 00"
Sunlit
Object was in daylight at epoch
Visualization orbit readout
Latitude
Unknown
Longitude
Unknown
Altitude
Unknown
Speed
Unknown
Apparent Right ascension
Unknown
Apparent Declination
Unknown
Sunlit
N/A
Visualization observer readout
Local Sidereal Time
06:50:12
Azimuth
Unknown
Elevation
Unknown
Doppler factor
Unknown
Orbital elements
Apogee altitude
651.929 km
Perigee altitude
639.508 km
Semi-major axis
7,023.856 km
Eccentricity
0.00088
Inclination
97.9539°
RAAN
124.4413°
Arg. of periapsis
203.9227°
True anomaly
156.19812°
Mean anomaly
156.1572°
Eccentric anomaly
156.17766°
Mean motion
3.68706 °/min
Orbital period
97.64 mins
BSTAR
0.00019305
Loading maneuver chart data...
Computing Atmospheric mass density...
Loading historical data...
Loading historical data...
Loading historical data...
Loading historical data...
Loading historical data...
Loading historical data...
Loading historical data...
Other satellites on launch #47 in the year 2025 (2025-03-12 UTC)

Documentation

Showing up to 5 results
|